Location: Dürabuch
(48.2640°N, 11.2185°E)
Time: 22:33:47
(UTC+00:00)

EXPRESS MD2 - Pass Details

Date: 23 May 2024
Orbit: 262 x 3334 km, 49.9° (Epoch: 14 June)

Event Time Altitude Azimuth Distance (km) Brightness Sun altitude
Exits shadow 01:31:15 32° 200° (SSW) 691 3.3 -14.4°
Maximum altitude 01:32:12 46° 149° (SSE) 583 3.2 -14.3°
Drops below altitude 10° 01:36:18 10° 76° (ENE) 2,029 6.9 -13.9°
Sets 01:39:32 0° 71° (ENE) 3,416 8.3 -13.6°
